CZ-6A DEB, 54298

Orbit data source: Space-Track

CZ-6A DEB, 54298 is space debris in SSO originally from a launch on Fri, 11 Nov 2022 UTC launched from the Taiyaun Space Center, China (TSC). Debris objects in space refer to the collection of defunct objects orbiting the Earth. Examples of debris include non-operational satellites, rocket bodies, and fragments generated from explosions, collisions, or faulty payload assembly.

Loading next visibility...
Identifier
54298, 2022-151AR
Orbit
SSO
Country
Flag of CNCN / PRC
Related business
Manufacturer
SAST
Mission
Spacecraft
Bus & Motor
Unknown
Mass
Unknown
Launch date (UTC)
2022-11-11 (4 years ago)
Launch vehicle
Unknown
Launch site
Taiyaun Space Center, China (TSC)
Object type
Payload
Rocket body
Debris
Shape & HBR
Unknown shape, 0.1 m
Radar Cross Section
Medium (>0.1 m² and <1 m²)

Expand to show TLE details & history
Last TLE update: 2 days ago

TLE from 2 days ago
0 CZ-6A DEB
1 54298U 22151AR  26171.37432005  .00000200  00000-0  14350-3 0  9998
2 54298  98.8328 159.3467 0061577 352.9059   7.1232 14.06921643184488
Epoch: 2026-06-20T08:59Z
TLE epoch observation values (Epoch: 2026-06-20T08:59:01.252Z)
Latitude
-0.00005°
Longitude
116.00163°
Altitude
828.526 km
Speed
7.461 km/s
True Right ascension
10h 37m 23s
True Declination
0° 00' 00"
Sunlit
Object was in daylight at epoch
Visualization orbit readout
Latitude
Unknown
Longitude
Unknown
Altitude
Unknown
Speed
Unknown
Apparent Right ascension
Unknown
Apparent Declination
Unknown
Sunlit
N/A
Visualization observer readout
Local Sidereal Time
21:54:17
Azimuth
Unknown
Elevation
Unknown
Doppler factor
Unknown
Orbital elements
Apogee altitude
911.721 km
Perigee altitude
822.493 km
Semi-major axis
7,245.244 km
Eccentricity
0.00616
Inclination
98.8328°
RAAN
159.3467°
Arg. of periapsis
352.9059°
True anomaly
7.21137°
Mean anomaly
7.1232°
Eccentric anomaly
7.16722°
Mean motion
3.51936 °/min
Orbital period
102.29 mins
BSTAR
0.0001435
Loading maneuver chart data...
Computing Atmospheric mass density...
Loading historical data...
Loading historical data...
Loading historical data...
Loading historical data...
Loading historical data...
Loading historical data...
Loading historical data...

Documentation

Showing up to 5 results
|